This is the latest recevied weather packets stored in our database for station/object K9MWD. If no packets are shown the sender has not sent any weather packets the latest 10 day(s).
| Time | Temp. | Humidity | Pressure | Rain* | Wind** | Luminosity | Snow |
|---|---|---|---|---|---|---|---|
| 1777593224 | 16.67° C | 83% | 1013.5 hPa | 0 mm | - | 53 W/m² | - |
| 1777592924 | 16.67° C | 84% | 1013.4 hPa | 0 mm | - | 52 W/m² | - |
| 1777592620 | 16.11° C | 84% | 1013.7 hPa | 0 mm | - | 67 W/m² | - |
| 1777592316 | 16.11° C | 84% | 1013.3 hPa | 0 mm | - | 42 W/m² | - |
| 1777592012 | 16.11° C | 84% | 1013.2 hPa | 0 mm | - | 41 W/m² | - |
| 1777591708 | 16.11° C | 85% | 1013.1 hPa | 0 mm | - | 77 W/m² | - |
| 1777591404 | 15.56° C | 86% | 1012.9 hPa | 0 mm | - | 84 W/m² | - |
| 1777591100 | 15.56° C | 87% | 1012.9 hPa | 0 mm | - | 62 W/m² | - |
| 1777590796 | 15.56° C | 88% | 1012.7 hPa | 0 mm | - | 43 W/m² | - |
| 1777590492 | 15.56° C | 89% | 1012.8 hPa | 0 mm | - | 69 W/m² | - |
| 1777590189 | 15° C | 90% | 1012.7 hPa | 0 mm | - | 58 W/m² | - |
| 1777589886 | 15° C | 91% | 1012.9 hPa | 0 mm | - | 64 W/m² | - |
| 1777589581 | 15° C | 91% | 1012.9 hPa | 0 mm | - | 69 W/m² | - |
| 1777589279 | 15° C | 91% | 1012.8 hPa | 0 mm | - | 111 W/m² | - |
| 1777588977 | 15° C | 91% | 1012.8 hPa | 1.27 mm | - | 92 W/m² | - |
| 1777588672 | 15° C | 91% | 1012.6 hPa | 1.27 mm | - | 71 W/m² | - |
| 1777588368 | 15° C | 91% | 1012.9 hPa | 0 mm | - | 93 W/m² | - |
| 1777588064 | 15° C | 91% | 1012.7 hPa | 0 mm | - | 84 W/m² | - |
| 1777587760 | 15° C | 91% | 1012.6 hPa | 0 mm | - | 100 W/m² | - |
| 1777587458 | 15° C | 91% | 1012.7 hPa | 0 mm | - | 50 W/m² | - |
| 1777587157 | 15° C | 91% | 1013 hPa | 0 mm | - | 106 W/m² | - |
| 1777586851 | 15° C | 91% | 1012.9 hPa | 0 mm | - | 110 W/m² | - |
| 1777586547 | 15° C | 90% | 1013.1 hPa | 0 mm | - | 89 W/m² | - |
| 1777586243 | 15° C | 90% | 1013.1 hPa | 0 mm | - | 75 W/m² | - |
| 1777585940 | 15° C | 90% | 1013.3 hPa | 0 mm | - | 71 W/m² | - |
* Rain latest hour (hover to see other rain measurements)
** Current wind speed in m/s (hover to see current wind gust speed)